Location: Highland Meadows Observing Site
(48.4428°N, 114.5461°W)
Time: 00:17:53
(UTC-06:00)

Amateur Radio Satellites - All Passes

Search period start: 24 October 2014 23:47
Search period end: 25 October 2014 23:47
Location: Highland Meadows Observing Site, 48.4428°N, 114.5461°W

Satellite Date Start Highest point End Downlink Frequencies (MHz)
Time Altitude Azimuth
SO-50 24 Oct 23:56:18 23:59:03 15° 250° (WSW) 00:01:48 436.795 FM
Oscar 10/S400 24 Oct 23:58:02 00:51:25 31° 220° (SW) 04:59:13 145.825 - 145.975 CW/USB, Beacon 145.810 USB
RS-15 24 Oct 23:58:48 00:09:47 86° 126° (SE) 00:20:48 29.354 - 29.394 USB, Beacon 29.352 USB
KITSAT 1 25 Oct 00:14:46 00:19:37 18° 260° (W) 00:24:28 435.175 FM
MaSat-1 25 Oct 00:26:31 00:30:12 34° 113° (ESE) 00:33:34 437.345 MHz
ZACube-1 25 Oct 00:34:37 00:36:49 13° 272° (W) 00:39:00 437.345 MHz
UOSAT-12 25 Oct 01:18:58 01:22:27 21° 247° (WSW) 01:25:54 437.025 FM, 437.400 FM
Oscar 16 25 Oct 01:43:42 01:44:46 11° 85° (E) 01:45:51 437.025 USB, Beacon 2401.1428
JAS-1B 25 Oct 01:45:03 01:48:46 15° 88° (E) 01:52:46 435.800 - 435.900 CW/SSB
MaSat-1 25 Oct 02:02:29 02:05:52 27° 309° (NW) 02:08:57 437.345 MHz
RS-15 25 Oct 02:13:12 02:23:26 43° 334° (NNW) 02:33:50 29.354 - 29.394 USB, Beacon 29.352 USB
Oscar 19 25 Oct 02:34:25 02:38:55 30° 95° (E) 02:43:24 437.125 CW, 437.150 USB
AO-27 25 Oct 02:53:06 02:56:54 20° 91° (E) 03:00:41 436.795 MHz FM
AO-Echo 25 Oct 03:13:23 03:18:20 38° 97° (E) 03:23:17 ?
Oscar 16 25 Oct 03:19:53 03:25:02 75° 103° (ESE) 03:30:09 437.025 USB, Beacon 2401.1428
Sapphire 25 Oct 03:28:32 03:29:56 11° 101° (E) 03:31:19 437.095 MHz 1200 baud AX-25 AFSK
JAS-1B 25 Oct 03:33:41 03:40:12 77° 105° (ESE) 03:48:00 435.800 - 435.900 CW/SSB
Uribyol 2 25 Oct 03:39:53 03:44:58 50° 100° (E) 03:50:01 436.500 FM
ITAMSAT 1 25 Oct 03:45:56 03:51:05 54° 100° (E) 03:56:11 435.822 SSB
PCSat 25 Oct 03:48:27 03:52:05 19° 106° (ESE) 03:55:44 145.825 MHz
Gurwin Techsat 1B 25 Oct 04:07:10 04:12:18 46° 99° (E) 04:17:24 435.225 FM
Oscar 19 25 Oct 04:13:36 04:18:23 41° 293° (WNW) 04:23:09 437.125 CW, 437.150 USB
OPAL 25 Oct 04:13:44 04:17:06 18° 54° (NE) 04:20:26 ?
TMSAT-1 25 Oct 04:18:15 04:23:21 44° 98° (E) 04:28:23 436.925 FM
RS-15 25 Oct 04:29:31 04:39:17 35° 8° (N) 04:49:18 29.354 - 29.394 USB, Beacon 29.352 USB
AO-27 25 Oct 04:31:41 04:36:53 65° 289° (WNW) 04:42:03 436.795 MHz FM
AO-Echo 25 Oct 04:52:15 04:57:03 36° 295° (WNW) 05:01:51 ?
Uosat F 25 Oct 04:59:36 05:02:51 17° 89° (E) 05:06:04 435.120 FM
Oscar 16 25 Oct 05:00:19 05:03:50 19° 303° (WNW) 05:07:20 437.025 USB, Beacon 2401.1428
Sapphire 25 Oct 05:06:58 05:12:19 68° 120° (ESE) 05:17:44 437.095 MHz 1200 baud AX-25 AFSK
AO-7 25 Oct 05:12:02 05:19:29 35° 96° (E) 05:26:54 29.400 - 29.500 MHz
Uribyol 2 25 Oct 05:19:51 05:24:11 27° 299° (WNW) 05:28:29 436.500 FM
JAS-1B 25 Oct 05:25:24 05:30:26 25° 302° (WNW) 05:36:06 435.800 - 435.900 CW/SSB
ITAMSAT 1 25 Oct 05:26:01 05:30:16 26° 299° (WNW) 05:34:31 435.822 SSB
PCSat 25 Oct 05:29:26 05:34:51 80° 305° (NW) 05:40:20 145.825 MHz
Gurwin Techsat 1B 25 Oct 05:47:31 05:52:05 30° 298° (WNW) 05:56:37 435.225 FM
OPAL 25 Oct 05:50:14 05:55:23 83° 253° (WSW) 06:00:30 ?
TMSAT-1 25 Oct 05:58:30 06:03:07 31° 297° (WNW) 06:07:43 436.925 FM
STRAND 1 25 Oct 05:58:37 06:01:55 18° 56° (NE) 06:05:13 ?
AO-27 25 Oct 06:13:26 06:15:26 12° 309° (NW) 06:17:25 436.795 MHz FM
Uosat F 25 Oct 06:37:07 06:42:11 73° 288° (WNW) 06:47:12 435.120 FM
JAS-2 25 Oct 06:39:59 06:47:25 47° 96° (E) 06:54:54 435.800 - 435.900 CW/SSB, 435.910 FM
RS-15 25 Oct 06:43:26 06:54:23 60° 40° (NE) 07:05:43 29.354 - 29.394 USB, Beacon 29.352 USB
Sapphire 25 Oct 06:51:34 06:56:13 28° 321° (NW) 07:00:55 437.095 MHz 1200 baud AX-25 AFSK
AO-7 25 Oct 07:04:34 07:12:45 64° 296° (WNW) 07:20:56 29.400 - 29.500 MHz
PCSat 25 Oct 07:15:01 07:19:09 22° 328° (NNW) 07:23:17 145.825 MHz
OPAL 25 Oct 07:32:55 07:35:01 12° 271° (W) 07:37:07 ?
Hamsat 25 Oct 07:33:34 07:37:47 76° 102° (ESE) 07:41:59 145.90 MHz
STRAND 1 25 Oct 07:35:19 07:40:28 83° 255° (WSW) 07:45:40 ?
Uosat F 25 Oct 08:17:52 08:20:07 13° 307° (NW) 08:22:21 435.120 FM
JAS-2 25 Oct 08:25:08 08:32:24 48° 296° (WNW) 08:39:48 435.800 - 435.900 CW/SSB, 435.910 FM
Saudisat 1A 25 Oct 08:28:59 08:33:10 45° 121° (ESE) 08:37:22 436.775 MHz
SO-67 25 Oct 08:30:07 08:33:26 43° 99° (E) 08:36:44 435.3500 MHz FM
MaSat-1 25 Oct 08:34:15 08:35:34 13° 43° (NE) 08:36:50 437.345 MHz
Sapphire 25 Oct 08:39:30 08:41:34 12° 346° (NNW) 08:43:38 437.095 MHz 1200 baud AX-25 AFSK
RS-15 25 Oct 08:56:07 09:06:45 54° 245° (WSW) 09:17:49 29.354 - 29.394 USB, Beacon 29.352 USB
AO-7 25 Oct 08:58:35 09:04:03 20° 319° (NW) 09:09:32 29.400 - 29.500 MHz
PCSat 25 Oct 09:03:26 09:04:46 11° 353° (N) 09:06:06 145.825 MHz
Hamsat 25 Oct 09:11:04 09:13:11 14° 301° (WNW) 09:15:19 145.90 MHz
HO-68 25 Oct 09:18:13 09:23:03 19° 88° (E) 09:27:52 435.675 MHz FM
STRAND 1 25 Oct 09:18:24 09:20:28 12° 274° (W) 09:22:33 ?
SO-67 25 Oct 10:04:01 10:06:06 15° 296° (WNW) 10:08:10 435.3500 MHz FM
Saudisat 1A 25 Oct 10:08:55 10:12:52 32° 321° (NW) 10:16:52 436.775 MHz
MaSat-1 25 Oct 10:08:55 10:11:25 35° 246° (WSW) 10:13:43 437.345 MHz
JAS-2 25 Oct 10:12:18 10:15:43 14° 316° (NW) 10:19:11 435.800 - 435.900 CW/SSB, 435.910 FM
Sapphire 25 Oct 10:25:32 10:27:35 12° 13° (NNE) 10:29:39 437.095 MHz 1200 baud AX-25 AFSK
ZACube-1 25 Oct 10:43:12 10:44:33 11° 86° (E) 10:45:54 437.345 MHz
UKube-1 25 Oct 10:45:30 10:49:17 28° 95° (E) 10:53:03 145.840 MHz, 145.915 MHz
PCSat 25 Oct 10:47:53 10:50:43 14° 20° (NNE) 10:53:33 145.825 MHz
HO-68 25 Oct 11:04:31 11:11:46 87° 108° (ESE) 11:18:59 435.675 MHz FM
RS-15 25 Oct 11:13:08 11:16:20 12° 268° (W) 11:19:34 29.354 - 29.394 USB, Beacon 29.352 USB
FUNcube-1 25 Oct 11:25:54 11:29:42 30° 95° (E) 11:33:24 145.950 - 145.970 MHz USB
Oscar 11 25 Oct 11:26:12 11:30:31 69° 102° (ESE) 11:34:48 145.825 FM, Beacon 2401.500 USB
Saudisat 1A 25 Oct 11:52:03 11:53:47 12° 344° (NNW) 11:55:32 436.775 MHz
Sapphire 25 Oct 12:08:15 12:12:56 28° 39° (NE) 12:17:35 437.095 MHz 1200 baud AX-25 AFSK
ZACube-1 25 Oct 12:17:17 12:21:35 81° 285° (WNW) 12:25:47 437.345 MHz
Oscar 19 25 Oct 12:19:50 12:21:32 12° 51° (NE) 12:23:14 437.125 CW, 437.150 USB
UKube-1 25 Oct 12:21:33 12:25:31 35° 294° (WNW) 12:29:28 145.840 MHz, 145.915 MHz
PCSat 25 Oct 12:30:37 12:35:43 39° 44° (NE) 12:40:47 145.825 MHz
SO-50 25 Oct 12:36:11 12:37:29 11° 107° (ESE) 12:38:47 436.795 FM
JAS-1B 25 Oct 12:36:51 12:40:16 17° 52° (NE) 12:43:41 435.800 - 435.900 CW/SSB
KITSAT 1 25 Oct 12:49:32 12:57:09 48° 114° (ESE) 13:04:48 435.175 FM
HO-68 25 Oct 12:53:09 12:58:41 25° 309° (NW) 13:04:13 435.675 MHz FM
AO-Echo 25 Oct 12:55:06 12:57:03 12° 52° (NE) 12:59:01 ?
FUNcube-1 25 Oct 13:02:19 13:06:03 30° 294° (WNW) 13:09:43 145.950 - 145.970 MHz USB
Oscar 16 25 Oct 13:02:41 13:06:51 25° 61° (ENE) 13:11:00 437.025 USB, Beacon 2401.1428
Oscar 11 25 Oct 13:03:38 13:06:12 16° 301° (WNW) 13:08:45 145.825 FM, Beacon 2401.500 USB
Uribyol 2 25 Oct 13:24:13 13:27:50 19° 57° (ENE) 13:31:27 436.500 FM
ITAMSAT 1 25 Oct 13:30:17 13:34:00 20° 58° (ENE) 13:37:45 435.822 SSB
ISS 25 Oct 13:30:34 13:33:19 24° 142° (SE) 13:36:04 145.800 FM
Saudisat 1A 25 Oct 13:34:25 13:35:21 11° 9° (N) 13:36:17 436.775 MHz
Sapphire 25 Oct 13:51:25 13:56:50 69° 240° (WSW) 14:02:13 437.095 MHz 1200 baud AX-25 AFSK
Gurwin Techsat 1B 25 Oct 13:54:29 13:58:02 19° 56° (ENE) 14:01:36 435.225 FM
Oscar 19 25 Oct 13:54:50 13:59:55 63° 71° (ENE) 14:05:00 437.125 CW, 437.150 USB
ZACube-1 25 Oct 13:56:06 13:57:14 11° 304° (NW) 13:58:21 437.345 MHz
TMSAT-1 25 Oct 14:05:27 14:08:50 18° 56° (NE) 14:12:14 436.925 FM
SO-50 25 Oct 14:12:40 14:17:10 77° 126° (SE) 14:21:51 436.795 FM
PCSat 25 Oct 14:14:05 14:19:13 44° 245° (WSW) 14:24:19 145.825 MHz
AO-27 25 Oct 14:14:34 14:19:29 44° 67° (ENE) 14:24:26 436.795 MHz FM
JAS-1B 25 Oct 14:24:20 14:30:12 90° 73° (ENE) 14:35:56 435.800 - 435.900 CW/SSB
AO-7 25 Oct 14:26:12 14:31:41 20° 41° (NE) 14:37:09 29.400 - 29.500 MHz
AO-Echo 25 Oct 14:29:57 14:34:51 68° 72° (ENE) 14:39:57 ?
Oscar 16 25 Oct 14:40:51 14:45:54 53° 260° (W) 14:50:58 437.025 USB, Beacon 2401.1428
KITSAT 1 25 Oct 14:44:40 14:52:33 54° 317° (NW) 15:00:28 435.175 FM
Uribyol 2 25 Oct 15:01:31 15:06:44 77° 256° (WSW) 15:12:00 436.500 FM
ISS 25 Oct 15:06:24 15:09:45 80° 340° (NNW) 15:13:06 145.800 FM
ITAMSAT 1 25 Oct 15:07:46 15:12:59 72° 257° (WSW) 15:18:14 435.822 SSB
Saudisat 1A 25 Oct 15:12:55 15:16:30 23° 33° (NNE) 15:20:05 436.775 MHz
Gurwin Techsat 1B 25 Oct 15:32:04 15:37:23 81° 256° (WSW) 15:42:45 435.225 FM
UOSAT-12 25 Oct 15:32:16 15:36:46 50° 122° (ESE) 15:41:21 437.025 FM, 437.400 FM
Oscar 19 25 Oct 15:35:59 15:39:42 20° 269° (W) 15:43:26 437.125 CW, 437.150 USB
Sapphire 25 Oct 15:37:44 15:39:15 11° 259° (WSW) 15:40:45 437.095 MHz 1200 baud AX-25 AFSK
TMSAT-1 25 Oct 15:42:46 15:48:05 86° 255° (WSW) 15:53:27 436.925 FM
SO-50 25 Oct 15:54:30 15:58:16 24° 328° (NNW) 16:02:07 436.795 FM
AO-27 25 Oct 15:54:37 15:59:09 30° 265° (W) 16:03:43 436.795 MHz FM
AO-Echo 25 Oct 16:10:53 16:14:10 18° 272° (W) 16:17:33 ?
AO-7 25 Oct 16:14:52 16:22:59 65° 64° (ENE) 16:31:10 29.400 - 29.500 MHz
Uosat F 25 Oct 16:16:02 16:20:34 35° 65° (ENE) 16:25:08 435.120 FM
JAS-1B 25 Oct 16:19:07 16:21:51 13° 274° (W) 16:24:32 435.800 - 435.900 CW/SSB
ISS 25 Oct 16:43:26 16:46:41 46° 360° (N) 16:49:56 145.800 FM
KITSAT 1 25 Oct 16:43:30 16:49:57 25° 344° (NNW) 16:56:25 435.175 FM
Uribyol 2 25 Oct 16:45:30 16:47:06 11° 275° (W) 16:48:43 436.500 FM
Saudisat 1A 25 Oct 16:52:07 16:56:33 74° 234° (SW) 17:00:57 436.775 MHz
ITAMSAT 1 25 Oct 16:52:29 16:53:25 10° 276° (W) 16:54:21 435.822 SSB
JAS-2 25 Oct 16:56:57 17:02:15 30° 57° (ENE) 17:08:07 435.800 - 435.900 CW/SSB, 435.910 FM
Hamsat 25 Oct 16:57:53 16:59:11 11° 57° (ENE) 17:00:29 145.90 MHz
UOSAT-12 25 Oct 17:12:54 17:17:08 32° 322° (NW) 17:21:25 437.025 FM, 437.400 FM
Gurwin Techsat 1B 25 Oct 17:16:02 17:18:12 12° 275° (W) 17:20:23 435.225 FM
TMSAT-1 25 Oct 17:26:17 17:28:48 13° 274° (W) 17:31:20 436.925 FM
SO-50 25 Oct 17:38:45 17:40:30 12° 352° (N) 17:42:17 436.795 FM
Uosat F 25 Oct 17:54:45 17:59:20 35° 263° (W) 18:03:59 435.120 FM
OPAL 25 Oct 17:57:27 18:00:48 18° 92° (E) 18:04:07 ?
AO-7 25 Oct 18:08:57 18:16:17 34° 265° (W) 18:23:41 29.400 - 29.500 MHz
ISS 25 Oct 18:20:16 18:23:37 80° 21° (NNE) 18:26:58 145.800 FM
Hamsat 25 Oct 18:30:15 18:34:27 86° 76° (ENE) 18:38:40 145.90 MHz
Saudisat 1A 25 Oct 18:34:38 18:35:19 10° 252° (WSW) 18:36:00 436.775 MHz
JAS-2 25 Oct 18:40:47 18:46:48 63° 260° (W) 18:53:42 435.800 - 435.900 CW/SSB, 435.910 FM
KITSAT 1 25 Oct 18:42:04 18:48:26 24° 14° (NNE) 18:54:46 435.175 FM
UOSAT-12 25 Oct 18:56:26 18:58:43 13° 346° (NNW) 19:01:00 437.025 FM, 437.400 FM
SO-67 25 Oct 19:06:27 19:09:21 26° 68° (ENE) 19:12:17 435.3500 MHz FM
SO-50 25 Oct 19:20:32 19:23:06 14° 17° (NNE) 19:25:42 436.795 FM
OPAL 25 Oct 19:35:14 19:40:11 68° 291° (WNW) 19:45:05 ?
STRAND 1 25 Oct 19:42:39 19:46:55 25° 93° (E) 19:51:08 ?
HO-68 25 Oct 19:51:18 19:56:46 25° 51° (NE) 20:02:16 435.675 MHz FM
ISS 25 Oct 19:57:17 20:00:03 24° 218° (SW) 20:02:49 145.800 FM
Hamsat 25 Oct 20:10:15 20:11:01 10° 274° (W) 20:11:47 145.90 MHz
JAS-2 25 Oct 20:31:57 20:33:34 11° 283° (WNW) 20:35:14 435.800 - 435.900 CW/SSB, 435.910 FM
KITSAT 1 25 Oct 20:38:09 20:45:59 49° 41° (NE) 20:53:45 435.175 FM
UOSAT-12 25 Oct 20:38:57 20:40:55 12° 11° (N) 20:42:52 437.025 FM, 437.400 FM
SO-67 25 Oct 20:39:33 20:42:19 23° 266° (W) 20:45:07 435.3500 MHz FM
Oscar 11 25 Oct 20:51:49 20:53:26 12° 57° (ENE) 20:55:03 145.825 FM, Beacon 2401.500 USB
SO-50 25 Oct 21:00:30 21:04:59 37° 40° (NE) 21:09:32 436.795 FM
OPAL 25 Oct 21:16:12 21:18:11 12° 311° (NW) 21:20:10 ?
RS-15 25 Oct 21:16:55 21:23:38 19° 98° (E) 21:30:17 29.354 - 29.394 USB, Beacon 29.352 USB
STRAND 1 25 Oct 21:21:23 21:26:22 50° 292° (WNW) 21:31:19 ?
HO-68 25 Oct 21:36:29 21:43:40 88° 252° (WSW) 21:50:55 435.675 MHz FM
ZACube-1 25 Oct 21:42:27 21:45:29 18° 61° (ENE) 21:48:29 437.345 MHz
UKube-1 25 Oct 21:44:20 21:48:23 39° 68° (ENE) 21:52:29 145.840 MHz, 145.915 MHz
UOSAT-12 25 Oct 22:18:36 22:22:39 27° 34° (NE) 22:26:39 437.025 FM, 437.400 FM
Oscar 11 25 Oct 22:24:36 22:28:56 86° 75° (ENE) 22:33:17 145.825 FM, Beacon 2401.500 USB
FUNcube-1 25 Oct 22:25:24 22:29:40 41° 69° (ENE) 22:33:54 145.950 - 145.970 MHz USB
KITSAT 1 25 Oct 22:33:45 22:41:33 54° 244° (WSW) 22:49:18 435.175 FM
SO-50 25 Oct 22:41:04 22:45:39 43° 240° (WSW) 22:50:15 436.795 FM
ZACube-1 25 Oct 23:16:53 23:21:26 65° 259° (WSW) 23:25:56 437.345 MHz
UKube-1 25 Oct 23:21:10 23:24:43 24° 266° (W) 23:28:18 145.840 MHz, 145.915 MHz
RS-15 25 Oct 23:22:59 23:33:50 71° 121° (ESE) 23:44:42 29.354 - 29.394 USB, Beacon 29.352 USB
HO-68 25 Oct 23:27:32 23:32:23 19° 272° (W) 23:37:16 435.675 MHz FM
